When you browse on this site, cookies collect data to enhance your experience and personalize the content and advertising you see.
Visit our Privacy Policy to learn more. By continuing to use the site, you agree to this use of cookies and data.
  • In Austria
  • List of Countries
  • For 7 days
  • Water Temperature
  • Satellite Maps
  • Weather Map
  • News
  • Weather Widgets
  • user-avatar
    Login

    Hourly Weather Batumi

    Today, 18 January, Friday

    Time Temperature Precipitation Wind Pressure Humidity
    00:00 +1°C° 0.1 mm 4 mps 768 mmHg 87%
    01:00 +1°C° 0.2 mm 4 mps 768 mmHg 87%
    02:00 +1°C° 0.2 mm 4 mps 769 mmHg 87%
    03:00 +2°C° 0 mm 6 mps 768 mmHg 84%
    04:00 +2°C° 0.1 mm 5 mps 769 mmHg 83%
    05:00 +3°C° 0.1 mm 4 mps 769 mmHg 81%
    06:00 +3°C° 0.1 mm 3 mps 769 mmHg 80%
    07:00 +3°C° 0 mm 3 mps 769 mmHg 77%
    08:00 +5°C° 0 mm 2 mps 770 mmHg 74%
    09:00 +6°C° 0 mm 2 mps 769 mmHg 69%
    10:00 +7°C° 0 mm 2 mps 769 mmHg 66%
    11:00 +8°C° 0 mm 2 mps 769 mmHg 64%
    12:00 +10°C° 0 mm 1 mps 768 mmHg 61%
    13:00 +10°C° 0 mm 1 mps 768 mmHg 63%
    14:00 +10°C° 0 mm 1 mps 768 mmHg 65%
    15:00 +9°C° 0 mm 1 mps 767 mmHg 69%
    16:00 +8°C° 0 mm 1 mps 768 mmHg 73%
    17:00 +7°C° 0 mm 1 mps 768 mmHg 77%
    18:00 +6°C° 0 mm 1 mps 768 mmHg 81%
    19:00 +5°C° 0 mm 2 mps 769 mmHg 78%
    20:00 +5°C° 0 mm 2 mps 769 mmHg 74%
    21:00 +5°C° 0 mm 2 mps 769 mmHg 71%
    22:00 +5°C° 0 mm 2 mps 769 mmHg 68%
    23:00 +5°C° 0 mm 2 mps 769 mmHg 66%

    Tomorrow, 19 January, Saturday

    Time Temperature Precipitation Wind Pressure Humidity
    00:00 +4°C° 0 mm 3 mps 769 mmHg 63%
    01:00 +4°C° 0 mm 3 mps 769 mmHg 61%
    02:00 +4°C° 0 mm 3 mps 769 mmHg 58%
    03:00 +4°C° 0 mm 3 mps 769 mmHg 56%
    04:00 +3°C° 0 mm 3 mps 769 mmHg 54%
    05:00 +3°C° 0 mm 3 mps 769 mmHg 52%
    06:00 +3°C° 0 mm 3 mps 768 mmHg 51%
    07:00 +4°C° 0 mm 3 mps 768 mmHg 49%
    08:00 +4°C° 0 mm 3 mps 768 mmHg 47%
    09:00 +5°C° 0 mm 3 mps 768 mmHg 45%
    10:00 +8°C° 0 mm 2 mps 768 mmHg 41%
    11:00 +11°C° 0 mm 1 mps 767 mmHg 38%
    12:00 +12°C° 0 mm 1 mps 767 mmHg 35%
    13:00 +12°C° 0 mm 1 mps 767 mmHg 36%
    14:00 +12°C° 0 mm 1 mps 767 mmHg 38%
    15:00 +12°C° 0 mm 1 mps 766 mmHg 40%
    16:00 +10°C° 0 mm 1 mps 767 mmHg 45%
    17:00 +8°C° 0 mm 2 mps 768 mmHg 49%
    18:00 +6°C° 0 mm 2 mps 768 mmHg 53%
    19:00 +6°C° 0 mm 2 mps 769 mmHg 53%
    20:00 +6°C° 0 mm 2 mps 769 mmHg 52%
    21:00 +5°C° 0 mm 3 mps 769 mmHg 52%
    22:00 +5°C° 0 mm 3 mps 769 mmHg 51%
    23:00 +5°C° 0 mm 3 mps 769 mmHg 51%

    Day after tomorrow, 20 January, Sunday

    Time Temperature Precipitation Wind Pressure Humidity
    00:00 +5°C° 0 mm 3 mps 769 mmHg 50%
    01:00 +5°C° 0 mm 3 mps 769 mmHg 50%
    02:00 +5°C° 0 mm 3 mps 770 mmHg 50%
    03:00 +5°C° 0 mm 3 mps 770 mmHg 49%
    04:00 +5°C° 0 mm 3 mps 770 mmHg 50%
    05:00 +5°C° 0 mm 3 mps 769 mmHg 50%
    06:00 +5°C° 0 mm 2 mps 769 mmHg 51%
    07:00 +6°C° 0 mm 2 mps 769 mmHg 50%
    08:00 +6°C° 0 mm 2 mps 770 mmHg 49%
    09:00 +7°C° 0 mm 2 mps 770 mmHg 49%
    10:00 +8°C° 0 mm 2 mps 769 mmHg 45%
    11:00 +11°C° 0 mm 1 mps 769 mmHg 42%
    12:00 +11°C° 0 mm 0 mps 768 mmHg 38%
    13:00 +12°C° 0 mm 1 mps 768 mmHg 40%
    14:00 +12°C° 0 mm 1 mps 767 mmHg 42%
    15:00 +12°C° 0 mm 1 mps 767 mmHg 44%
    16:00 +10°C° 0 mm 2 mps 767 mmHg 49%
    17:00 +8°C° 0 mm 2 mps 768 mmHg 54%
    18:00 +7°C° 0 mm 2 mps 768 mmHg 59%
    19:00 +7°C° 0 mm 2 mps 769 mmHg 59%
    20:00 +7°C° 0 mm 3 mps 769 mmHg 60%
    21:00 +5°C° 0 mm 3 mps 769 mmHg 60%
    22:00 +5°C° 0 mm 3 mps 769 mmHg 59%
    23:00 +5°C° 0 mm 3 mps 769 mmHg 57%

    21 January, Monday

    Time Temperature Precipitation Wind Pressure Humidity
    00:00 +5°C° 0 mm 4 mps 769 mmHg 55%
    01:00 +5°C° 0 mm 4 mps 769 mmHg 53%
    02:00 +5°C° 0 mm 4 mps 769 mmHg 50%
    03:00 +4°C° 0 mm 4 mps 769 mmHg 48%
    04:00 +4°C° 0 mm 4 mps 769 mmHg 47%
    05:00 +4°C° 0 mm 4 mps 768 mmHg 45%
    06:00 +4°C° 0 mm 4 mps 768 mmHg 44%
    07:00 +5°C° 0 mm 4 mps 768 mmHg 43%
    08:00 +5°C° 0 mm 4 mps 768 mmHg 42%
    09:00 +6°C° 0 mm 4 mps 768 mmHg 41%
    10:00 +7°C° 0 mm 4 mps 767 mmHg 40%
    11:00 +10°C° 0 mm 3 mps 766 mmHg 39%
    12:00 +12°C° 0 mm 2 mps 765 mmHg 38%
    13:00 +12°C° 0 mm 2 mps 765 mmHg 40%
    14:00 +13°C° 0 mm 1 mps 764 mmHg 41%
    15:00 +13°C° 0 mm 1 mps 764 mmHg 43%
    16:00 +10°C° 0 mm 2 mps 765 mmHg 48%
    17:00 +9°C° 0 mm 2 mps 765 mmHg 53%
    18:00 +7°C° 0 mm 3 mps 766 mmHg 59%
    19:00 +7°C° 0 mm 3 mps 766 mmHg 58%
    20:00 +6°C° 0 mm 4 mps 766 mmHg 58%
    21:00 +6°C° 0 mm 4 mps 767 mmHg 57%
    22:00 +5°C° 0 mm 4 mps 767 mmHg 56%
    23:00 +5°C° 0 mm 4 mps 767 mmHg 54%

    22 January, Tuesday

    Time Temperature Precipitation Wind Pressure Humidity
    00:00 +5°C° 0 mm 4 mps 767 mmHg 53%
    01:00 +5°C° 0 mm 4 mps 767 mmHg 53%
    02:00 +5°C° 0 mm 4 mps 767 mmHg 53%
    03:00 +5°C° 0 mm 4 mps 767 mmHg 53%
    04:00 +5°C° 0 mm 4 mps 767 mmHg 54%
    05:00 +5°C° 0 mm 4 mps 767 mmHg 56%
    06:00 +5°C° 0 mm 3 mps 767 mmHg 57%
    07:00 +5°C° 0 mm 3 mps 767 mmHg 57%
    08:00 +7°C° 0 mm 3 mps 767 mmHg 57%
    09:00 +7°C° 0 mm 3 mps 768 mmHg 57%
    10:00 +8°C° 0 mm 3 mps 767 mmHg 55%
    11:00 +9°C° 0 mm 2 mps 767 mmHg 53%
    12:00 +12°C° 0 mm 2 mps 766 mmHg 51%
    13:00 +10°C° 0 mm 2 mps 766 mmHg 53%
    14:00 +10°C° 0 mm 2 mps 765 mmHg 55%
    15:00 +10°C° 0 mm 2 mps 765 mmHg 57%
    16:00 +10°C° 0 mm 1 mps 765 mmHg 61%
    17:00 +8°C° 0 mm 1 mps 766 mmHg 65%
    18:00 +7°C° 0 mm 1 mps 766 mmHg 69%
    19:00 +7°C° 0 mm 1 mps 766 mmHg 68%
    20:00 +6°C° 0 mm 2 mps 766 mmHg 67%
    21:00 +6°C° 0 mm 2 mps 766 mmHg 66%
    22:00 +5°C° 0 mm 3 mps 766 mmHg 65%
    23:00 +5°C° 0 mm 3 mps 766 mmHg 65%

    23 January, Wednesday

    Time Temperature Precipitation Wind Pressure Humidity
    00:00 +5°C° 0 mm 3 mps 766 mmHg 64%
    01:00 +5°C° 0 mm 3 mps 766 mmHg 62%
    02:00 +5°C° 0 mm 3 mps 766 mmHg 60%
    03:00 +5°C° 0 mm 3 mps 765 mmHg 58%
    04:00 +5°C° 0 mm 3 mps 765 mmHg 57%
    05:00 +4°C° 0 mm 3 mps 765 mmHg 56%
    06:00 +4°C° 0 mm 4 mps 765 mmHg 55%
    07:00 +5°C° 0 mm 4 mps 765 mmHg 53%
    08:00 +5°C° 0 mm 4 mps 765 mmHg 50%
    09:00 +6°C° 0 mm 4 mps 765 mmHg 48%
    10:00 +9°C° 0 mm 3 mps 765 mmHg 47%
    11:00 +10°C° 0 mm 3 mps 764 mmHg 45%
    12:00 +13°C° 0 mm 2 mps 763 mmHg 43%
    13:00 +13°C° 0 mm 2 mps 763 mmHg 45%
    14:00 +13°C° 0 mm 2 mps 763 mmHg 46%
    15:00 +13°C° 0 mm 2 mps 762 mmHg 48%
    16:00 +12°C° 0 mm 2 mps 763 mmHg 53%
    17:00 +10°C° 0 mm 3 mps 763 mmHg 58%
    18:00 +7°C° 0 mm 4 mps 764 mmHg 63%
    19:00 +7°C° 0 mm 4 mps 764 mmHg 62%
    20:00 +7°C° 0 mm 4 mps 764 mmHg 61%
    21:00 +6°C° 0 mm 5 mps 765 mmHg 60%
    22:00 +6°C° 0 mm 5 mps 765 mmHg 58%
    23:00 +6°C° 0 mm 5 mps 765 mmHg 56%
    Show more